CanjetBLOCKVirtuelBLOCKQcBLOCKBLOCKBLOCKBLOCKBLOCKBLOCKBLOCKBLOCKBLOCKBLOCKBLOCKvolsBLOCKavecBLOCKFS-kACARS2019-07-17BLOCK12colon49am

volsBLOCKBLOCKBLOCKBLOCKBLOCKpilotesBLOCKBLOCKBLOCKBLOCKBLOCKBLOCKBLOCKBLOCKtypeBLOCKBLOCKdepBLOCKBLOCKarrBLOCKBLOCKBLOCKBLOCKBLOCKaltBLOCKBLOCKBLOCKBLOCKBLOCKgsBLOCKBLOCKBLOCKBLOCKstatut

CJA9999StephaneBLOCKGB738GCLP-LFML0ft17kts11colon17am
CJA9003Jean-PierreBLOCKAB738CYYZ-CYUL0ft0ktsarrived
9999LouisBLOCKBB77LCYSC-CYYT0ft0ktsarrived








BLOCKAppuyerBLOCKsurBLOCKF5BLOCKpourBLOCKactualiserBLOCKBLOCKBLOCKMiseBLOCKaBLOCKjourcolonBLOCK00colon49colon19amCanjetBLOCKvirtuelBLOCKQC

737 MAX de retour en 2020

Publié par Yvan Roy le 2019-07-16

 

 

                                                    

 

  


Microsoft flight sim 2020

Publié par Yvan Roy le 2019-06-25

 

Microsoft flight simulator 2020 encore plus fort sera disponible pour votre PC au début 2020 .

 


 

                                                   

 


 

  


Bienvenue chez Canjetvirtuel-Q

Publié par Michel Ayotte le 2013-06-14

 

Canjetvirtuel-Québec est une compagnie aérienne virtuelle qui a été fondée par 2 passionnés de la simulation de vol.

Elle est opérée avec les Boeing 737. Exceptionnelement et pour votre plaisir les Boeing 747,757,767 et 777 sont autorisés pour des vols de plus de 1,5 heure.

Ces appareils pouvant faire des vols cargos ou des vols passagers,que ce soit au Canada, Europe, États-Unis, Mexique et Caraïbes.

Vous trouverez votre place comme pilote chez nous!



Avis

Aux fins de la simulation de vol seulement. CanjetVirtuel Québec n'est en aucun cas affilié avec n'importe quelle compagnie aérienne du monde réel. CanjetVirtuel Québec est un site à but non lucratif gérée par des amateurs de simulation de vol. Toutes les images sont la propriété exclusive de leurs propriétaires respectifs.
| propulsé par phpVMS, © 2013-2019.

Notice

For flight simulation purposes only. CanjetVirtuel Quebec is in no way affiliated with any real world airline. CanjetVirtuel Quebec is a non-profit site run by flight simulation enthusiasts. All images are the sole property of their respective owners.
| powered by phpVMS, © 2013-2019.

Affiliations

Vatsim

Les statistiques du site

Nombre de pilotes: 14
Total des vols effectués: 4599
Trajets disponibles: 543
Passagers transportés: 957394
Total des heures de vol: 13725
Distance totale (NM): 5735334
Pilotes en ligne: 0

METAR

CYHZ 170400Z 22007KT 15SM OVC200 20/15 A2996 RMK CI8 SLP145 DENSITY ALT 1100FT

CYQB 170400Z 00000KT 15SM BKN060 19/18 A2978 RMK SC7 SLP087 DENSITY ALT 1000FT

CYUL 170400Z 23017KT 15SM SCT075 SCT180 BKN250 26/20 A2982 RMK AC3AC1CI3 SLP099 DENSITY ALT 1600FT

CYYZ 170400Z 18011KT 15SM SCT065 BKN160 BKN220 24/22 A2991 RMK SC4AC2CI1 SLP127 DENSITY ALT 1800FT